Powrót do katalogu

DIRECTV 14

AktywnyŁącznośćGEO
NORAD 40333·PAYLOAD·🇺🇸 United States

Wystrzelony Dec 6, 2014 z Guiana Space Centre

Loading…

TLE

ŚwieżeSource: Space-Track

Epoka: Sep 14, 2026, 15:28 UTC

1 40333U 14078B   26257.64454825 -.00000133  00000-0  00000-0 0  9991
2 40333   0.0146  86.7277 0000721 349.2822  50.4042  1.00271254 42949

Śledź DIRECTV 14 w czasie rzeczywistym z AllMySat

Download on the App Store